Location: Carson
(33.8314°N, 118.2820°W)
Time: 11:55:38
(UTC+00:00)

COSMO-SKYMED 1 - Pass Details

Date: 23 November 2020
Orbit: 621 x 623 km, 97.9° (Epoch: 22 January)

Event Time Altitude Azimuth Distance (km) Brightness Sun altitude
Rises 12:49:16 0° 153° (SSE) 2,886 6.5 -21.4°
Reaches altitude 10° 12:51:29 10° 148° (SSE) 1,984 5.7 -20.9°
Maximum altitude 12:55:39 48° 74° (ENE) 820 3.5 -20.1°
Drops below altitude 10° 12:59:49 10° 1° (N) 1,998 5.0 -19.2°
Sets 13:02:04 0° 355° (N) 2,909 5.8 -18.8°
Enters shadow 13:02:11 - 355° (N) 2,957 5.9 -18.8°
